VK2XSE Weather Reports


time (UTC)temp
F
wind
direction
speed
knots
gust
knots
rain 1hr
in
rain 24hr
in
rain mn
in
humidity
%
barometer
mb
20260510180017 49 113 0.9 1.7 0.00 0.00 0.00 87 1029.6
20260510175017 49 90 0.9 0.9 0.00 0.00 0.00 86 1029.7
20260510174017 49 90 0.9 0.9 0.00 0.00 0.00 87 1029.6
20260510173017 49 0.0 0.9 0.00 0.00 0.00 89 1029.6
20260510172017 49 113 0.9 2.6 0.00 0.00 0.00 89 1029.6
20260510171017 48 158 0.9 1.7 0.00 0.00 0.00 89 1029.5
20260510170017 48 0.0 0.0 0.00 0.00 0.00 88 1029.6
20260510165017 48 0.0 0.0 0.00 0.00 0.00 87 1029.5
20260510164017 49 0.0 0.0 0.00 0.00 0.00 87 1029.6
20260510163017 49 0.0 0.0 0.00 0.00 0.00 86 1029.6
20260510162017 49 0.0 0.0 0.00 0.00 0.00 86 1029.7
20260510161017 49 0.0 0.0 0.00 0.00 0.00 87 1029.7
20260510160017 49 0.0 0.9 0.00 0.00 0.00 87 1029.7
20260510155017 49 0.0 0.9 0.00 0.00 0.00 87 1029.7
20260510154017 49 0.0 1.7 0.00 0.00 0.00 86 1029.6
20260510153017 49 180 0.9 0.9 0.00 0.00 0.00 86 1029.6
20260510152017 49 0.0 0.9 0.00 0.00 0.00 83 1029.6
20260510151017 50 0 0.9 0.9 0.00 0.00 0.00 83 1029.5
20260510150017 50 0.0 0.9 0.00 0.00 0.00 83 1029.6
20260510145017 51 0.0 1.7 0.00 0.00 0.00 83 1029.7
20260510144017 51 0.0 0.0 0.00 0.00 0.00 82 1029.8
20260510143017 51 0.0 1.7 0.00 0.00 0.00 80 1029.7
20260510142017 51 0.0 0.0 0.00 0.00 0.00 80 1029.8
20260510141017 52 0.0 0.0 0.00 0.00 0.00 80 1029.7
20260510140017 52 180 0.9 0.9 0.00 0.00 0.00 80 1029.6
20260510135016 52 180 0.9 1.7 0.00 0.00 0.00 79 1029.5
20260510134017 52 180 1.7 1.7 0.00 0.00 0.00 80 1029.5
20260510133016 52 180 1.7 1.7 0.00 0.00 0.00 81 1029.4
20260510132016 51 180 0.9 1.7 0.00 0.00 0.00 81 1029.4
20260510131016 52 0.0 0.9 0.00 0.00 0.00 80 1029.5
20260510130016 52 0.0 0.0 0.00 0.00 0.00 79 1029.6
20260510125018 52 0.0 0.0 0.00 0.00 0.00 78 1029.6
20260510124018 53 0.0 0.0 0.00 0.00 0.00 78 1029.6
20260510123018 53 0.0 0.0 0.00 0.00 0.00 78 1029.7
20260510122018 53 0.0 0.9 0.00 0.00 0.00 78 1029.6
20260510121018 53 180 0.9 1.7 0.00 0.00 0.00 78 1029.6
20260510120018 54 180 1.7 1.7 0.00 0.00 0.00 76 1029.5
20260510115018 54 203 1.7 2.6 0.00 0.00 0.00 75 1029.5
20260510114018 55 203 0.9 0.9 0.00 0.00 0.00 74 1029.4
20260510113018 55 0.0 0.9 0.00 0.00 0.00 73 1029.4
20260510112018 55 203 0.9 0.9 0.00 0.00 0.00 72 1029.2
20260510111018 56 203 0.9 1.7 0.00 0.00 0.00 71 1029.2
20260510110018 57 0.0 0.9 0.00 0.00 0.00 70 1029.2
20260510105018 57 203 0.9 1.7 0.00 0.00 0.00 70 1029.1
20260510104018 57 203 0.9 1.7 0.00 0.00 0.00 69 1029.1
20260510103019 57 203 1.7 1.7 0.00 0.00 0.00 69 1029.2
20260510102018 58 203 0.9 1.7 0.00 0.00 0.00 68 1029.2
20260510101018 58 203 1.7 1.7 0.00 0.00 0.00 68 1029.1
20260510100018 58 203 1.7 1.7 0.00 0.00 0.00 68 1029.1
20260510095018 59 203 1.7 2.6 0.00 0.00 0.00 67 1029.0
20260510094018 59 203 2.6 2.6 0.00 0.00 0.00 67 1029.0
20260510093018 59 203 1.7 2.6 0.00 0.00 0.00 67 1028.9
20260510092018 59 0.0 0.9 0.00 0.00 0.00 67 1028.9
20260510091018 60 0.0 0.9 0.00 0.00 0.00 66 1028.7
20260510090018 60 0.0 0.9 0.00 0.00 0.00 65 1028.7
20260510085018 60 203 1.7 2.6 0.00 0.00 0.00 65 1028.5
20260510084018 60 180 2.6 3.5 0.00 0.00 0.00 64 1028.4
20260510083018 61 203 2.6 3.5 0.00 0.00 0.00 63 1028.3
20260510082018 62 203 1.7 3.5 0.00 0.00 0.00 62 1028.2
20260510081018 62 180 2.6 3.5 0.00 0.00 0.00 61 1028.1
20260510080018 63 180 2.6 3.5 0.00 0.00 0.00 59 1028.0
20260510075018 64 180 2.6 3.5 0.00 0.00 0.00 58 1028.0
20260510074059 65 180 1.7 2.6 0.00 0.00 0.00 56 1028.1
20260510073018 66 0.0 1.7 0.00 0.00 0.00 56 1027.9
20260510072018 67 0.0 1.7 0.00 0.00 0.00 55 1027.8
20260510071018 68 0.0 1.7 0.00 0.00 0.00 54 1027.7
20260510070018 68 0.0 1.7 0.00 0.00 0.00 53 1027.7
20260510065018 68 203 0.9 2.6 0.00 0.00 0.00 52 1027.6
20260510064018 69 180 0.9 1.7 0.00 0.00 0.00 49 1027.6
20260510063017 69 180 1.7 2.6 0.00 0.00 0.00 49 1027.5
20260510062017 70 203 0.9 3.5 0.00 0.00 0.00 49 1027.6
20260510061017 70 0.0 0.9 0.00 0.00 0.00 47 1027.5
20260510060017 70 0.0 1.7 0.00 0.00 0.00 46 1027.5
20260510055017 70 135 0.9 2.6 0.00 0.00 0.00 47 1027.5
20260510054017 70 0.0 1.7 0.00 0.00 0.00 47 1027.5
20260510053017 70 135 0.9 2.6 0.00 0.00 0.00 47 1027.5
20260510052017 70 180 0.9 1.7 0.00 0.00 0.00 47 1027.4
20260510051017 70 180 0.9 2.6 0.00 0.00 0.00 47 1027.4
20260510050017 70 135 0.9 2.6 0.00 0.00 0.00 47 1027.3
20260510045017 70 180 0.9 2.6 0.00 0.00 0.00 50 1027.3
20260510044017 69 180 0.9 4.3 0.00 0.00 0.00 50 1027.3
20260510043017 70 270 0.9 2.6 0.00 0.00 0.00 49 1027.4
20260510042017 70 248 0.9 4.3 0.00 0.00 0.00 49 1027.3
20260510041017 69 180 0.9 2.6 0.00 0.00 0.00 51 1027.4
20260510040017 69 90 0.9 1.7 0.00 0.00 0.00 51 1027.4
20260510035017 69 203 0.9 2.6 0.00 0.00 0.00 52 1027.5
20260510034017 69 180 0.9 4.3 0.00 0.00 0.00 53 1027.6
20260510033017 69 180 0.9 1.7 0.00 0.00 0.00 54 1027.7
20260510032017 68 135 0.9 2.6 0.00 0.00 0.00 54 1027.8
20260510031017 68 180 0.9 1.7 0.00 0.00 0.00 55 1027.9
20260510030017 68 135 0.9 3.5 0.00 0.00 0.00 55 1028.0
20260510025017 67 45 0.9 2.6 0.00 0.00 0.00 55 1028.2
20260510024017 67 0.0 2.6 0.00 0.00 0.00 57 1028.4
20260510023017 67 180 0.9 1.7 0.00 0.00 0.00 57 1028.6
20260510022017 67 135 0.9 3.5 0.00 0.00 0.00 58 1028.7
20260510021017 66 158 0.9 2.6 0.00 0.00 0.00 57 1028.9
20260510020017 66 180 0.9 2.6 0.00 0.00 0.00 59 1029.0
20260510015017 65 135 0.9 3.5 0.00 0.00 0.00 59 1029.3
20260510014017 64 0.0 1.7 0.00 0.00 0.00 62 1029.3
20260510013017 64 90 0.9 1.7 0.00 0.00 0.00 62 1029.4
20260510012017 63 68 0.9 1.7 0.00 0.00 0.00 64 1029.5
20260510011017 62 45 0.9 2.6 0.00 0.00 0.00 66 1029.6
20260510010017 62 135 0.9 2.6 0.00 0.00 0.00 68 1029.7
20260510005017 61 0.0 1.7 0.00 0.00 0.00 70 1029.7
20260510004017 60 158 0.9 1.7 0.00 0.00 0.00 72 1029.8
20260510003017 60 158 0.9 2.6 0.00 0.00 0.00 73 1029.8
20260510002017 59 0.0 1.7 0.00 0.00 0.00 77 1029.8
20260510001017 57 135 0.9 1.7 0.00 0.00 0.00 83 1029.8
20260510000017 55 0.0 0.0 0.00 0.00 0.00 92 1029.7
20260509235016 54 0.0 1.7 0.00 0.00 0.00 95 1029.7
20260509234016 53 0.0 0.9 0.00 0.00 0.00 95 1029.7
20260509233017 52 0.0 1.7 0.00 0.00 0.00 95 1029.7
20260509232016 50 0.0 1.7 0.00 0.00 0.00 95 1029.7
20260509231016 49 0.0 1.7 0.00 0.00 0.00 95 1029.6
20260509230018 47 0.0 1.7 0.00 0.00 0.00 95 1029.5
20260509225018 45 0.0 0.9 0.00 0.00 0.00 94 1029.4
20260509224018 44 0.0 0.0 0.00 0.00 0.00 93 1029.3
20260509223017 43 0.0 1.7 0.00 0.00 0.00 93 1029.2
20260509222018 42 0.0 0.0 0.00 0.00 0.00 93 1029.0
20260509221018 42 0.0 0.0 0.00 0.00 0.00 93 1029.0
20260509220018 41 0.0 0.0 0.00 0.00 0.00 92 1028.9
20260509215018 41 0.0 0.0 0.00 0.00 0.00 92 1028.7
20260509214018 41 0.0 0.0 0.00 0.00 0.00 91 1028.6
20260509213018 41 0.0 0.0 0.00 0.00 0.00 91 1028.5
20260509212018 41 0.0 0.0 0.00 0.00 0.00 91 1028.4
20260509211018 41 0.0 0.0 0.00 0.00 0.00 91 1028.4
20260509210018 41 0.0 1.7 0.00 0.00 0.00 90 1028.2
20260509205018 41 0.0 1.7 0.00 0.00 0.00 90 1028.1
20260509204018 41 0.0 1.7 0.00 0.00 0.00 90 1028.0
20260509203018 41 0.0 0.0 0.00 0.00 0.00 90 1027.9
20260509202018 42 0.0 0.0 0.00 0.00 0.00 90 1027.9
20260509201018 42 0.0 0.0 0.00 0.00 0.00 89 1027.8
20260509200018 42 0.0 0.0 0.00 0.00 0.00 89 1027.8
20260509195019 42 0.0 0.0 0.00 0.00 0.00 90 1027.6
20260509194018 42 0.0 0.0 0.00 0.00 0.00 90 1027.5
20260509193018 43 0.0 0.0 0.00 0.00 0.00 89 1027.5
20260509192018 43 0.0 0.0 0.00 0.00 0.00 90 1027.4
20260509191018 43 0.0 0.0 0.00 0.00 0.00 90 1027.4
20260509190018 44 0.0 0.0 0.00 0.00 0.00 90 1027.2
20260509185018 44 0.0 0.0 0.00 0.00 0.00 90 1027.2
20260509184018 43 0.0 1.7 0.00 0.00 0.00 89 1027.1
20260509183018 43 0.0 1.7 0.00 0.00 0.00 89 1027.0
20260509182018 43 0.0 0.0 0.00 0.00 0.00 89 1026.9
20260509181018 43 0.0 0.0 0.00 0.00 0.00 88 1026.9